KC7MGR Weather Reports


Display with metric or nautical units.
time (UTC)temp
F
wind
direction
speed
MPH
gust
MPH
rain 1hr
in
rain 24hr
in
rain mn
in
humidity
%
barometer
mb
20260505114332 46 86 0.0 0.0 0.00 0.00 0.00 61 1011.4
20260505113830 46 93 0.0 0.0 0.00 0.00 0.00 61 1011.3
20260505113328 46 95 0.0 0.0 0.00 0.00 0.00 62 1011.4
20260505112848 46 96 0.0 0.0 0.00 0.00 0.00 63 1011.4
20260505112328 46 95 0.0 0.0 0.00 0.00 0.00 63 1011.4
20260505111846 46 83 0.0 0.0 0.00 0.00 0.00 63 1011.4
20260505111345 46 96 0.0 0.0 0.00 0.00 0.00 63 1011.4
20260505110822 46 95 0.0 0.0 0.00 0.00 0.00 63 1011.3
20260505110320 46 77 0.0 0.0 0.00 0.00 0.00 63 1011.2
20260505101855 46 100 0.0 0.0 0.00 0.00 0.00 65 1011.1
20260505101316 47 81 0.0 0.0 0.00 0.00 0.00 66 1011.1
20260505100817 47 88 0.0 0.0 0.00 0.00 0.00 67 1011.0
20260505100317 47 92 0.0 0.0 0.00 0.00 0.00 67 1011.1
20260505095838 47 93 0.0 0.0 0.00 0.00 0.00 68 1011.0
20260505095317 47 100 0.0 0.0 0.00 0.00 0.00 69 1011.0
20260505094818 47 100 0.0 0.0 0.00 0.00 0.00 68 1010.9
20260505094318 47 98 0.0 0.0 0.00 0.00 0.00 67 1010.9
20260505093819 48 93 0.0 0.0 0.00 0.00 0.00 67 1011.1
20260505093341 48 96 0.0 0.0 0.00 0.00 0.00 67 1010.9
20260505092822 48 87 0.0 0.0 0.00 0.00 0.00 66 1011.0
20260505092320 48 89 0.0 0.0 0.00 0.00 0.00 66 1011.0
20260505091837 48 91 0.0 0.0 0.00 0.00 0.00 66 1011.0
20260505091334 48 85 0.0 0.0 0.00 0.00 0.00 65 1011.0
20260505090832 48 85 0.0 0.0 0.00 0.00 0.00 65 1011.1
20260505090330 48 82 0.0 0.0 0.00 0.00 0.00 64 1011.1
20260505085848 49 85 0.0 0.0 0.00 0.00 0.00 63 1011.0
20260505085351 49 78 0.0 0.0 0.00 0.00 0.00 62 1011.0
20260505084828 49 77 0.0 0.0 0.00 0.00 0.00 61 1011.0
20260505084328 49 82 0.0 0.0 0.00 0.00 0.00 62 1011.0
20260505083848 49 84 0.0 0.0 0.00 0.00 0.00 62 1010.9
20260505083344 49 75 0.0 0.0 0.00 0.00 0.00 63 1011.0
20260505082822 49 71 0.0 0.0 0.00 0.00 0.00 63 1011.0
20260505082321 49 64 0.0 0.0 0.00 0.00 0.00 62 1010.9
20260505081822 49 63 0.0 0.0 0.00 0.00 0.00 63 1010.9
20260505081323 49 62 0.0 0.0 0.00 0.00 0.00 64 1010.9
20260505080824 49 62 0.0 0.0 0.00 0.00 0.00 64 1011.0
20260505080326 49 65 0.0 0.0 0.00 0.00 0.00 65 1011.0
20260505075825 49 60 0.0 0.0 0.00 0.00 0.00 66 1011.0
20260505075324 48 66 0.0 0.0 0.00 0.00 0.00 67 1011.0
20260505074842 48 73 0.0 0.0 0.00 0.00 0.00 68 1010.9
20260505074320 49 70 0.0 0.0 0.00 0.00 0.00 68 1010.9
20260505073821 49 56 0.0 0.0 0.00 0.00 0.00 67 1011.0
20260505073318 49 57 0.0 0.0 0.00 0.00 0.00 66 1010.9
20260505072815 49 52 0.0 0.0 0.00 0.00 0.00 66 1010.8
20260505072350 50 51 0.0 0.0 0.00 0.00 0.00 65 1010.9
20260505071816 50 79 0.0 0.0 0.00 0.00 0.00 65 1010.7
20260505071330 50 71 0.0 0.0 0.00 0.00 0.00 67 1010.7
20260505070829 51 73 0.0 0.0 0.00 0.00 0.00 65 1010.7
20260505070327 51 71 0.0 0.0 0.00 0.00 0.00 64 1010.7
20260505065829 51 79 0.0 0.0 0.00 0.00 0.00 64 1010.7
20260505065330 51 84 0.0 0.0 0.00 0.00 0.00 63 1010.5
20260505064828 51 83 0.0 0.0 0.00 0.00 0.00 64 1010.5
20260505064326 51 77 0.0 0.0 0.00 0.00 0.00 65 1010.4
20260505063831 51 74 0.0 0.0 0.00 0.00 0.00 63 1010.3
20260505063353 51 71 0.0 0.0 0.00 0.00 0.00 61 1010.3
20260505062829 51 56 0.0 0.0 0.00 0.00 0.00 62 1010.4
20260505062329 51 59 0.0 0.0 0.00 0.00 0.00 63 1010.5
20260505061828 50 32 0.0 0.0 0.00 0.00 0.00 64 1010.4
20260505061331 50 44 0.0 0.0 0.00 0.00 0.00 65 1010.4
20260505060832 50 26 0.0 0.0 0.00 0.00 0.00 65 1010.4
20260505060331 50 29 0.0 0.0 0.00 0.00 0.00 67 1010.4
20260505055830 50 28 0.0 0.0 0.00 0.00 0.00 68 1010.3
20260505055327 49 29 0.0 0.0 0.00 0.00 0.00 69 1010.3
20260505054827 49 29 0.0 0.0 0.00 0.00 0.00 70 1010.2
20260505054328 50 33 0.0 0.0 0.00 0.00 0.00 70 1010.3
20260505053825 50 21 0.0 0.0 0.00 0.00 0.00 68 1010.3
20260505053343 50 22 0.0 0.0 0.00 0.00 0.00 70 1010.4
20260505052820 50 30 0.0 0.0 0.00 0.00 0.00 70 1010.3
20260505052318 50 32 0.0 0.0 0.00 0.00 0.00 71 1010.3
20260505051819 51 17 0.0 0.0 0.00 0.00 0.00 70 1010.5
20260505051317 50 27 0.0 0.0 0.00 0.00 0.00 72 1010.4
20260505050817 50 27 0.0 0.0 0.00 0.00 0.00 71 1010.5
20260505050319 51 20 0.0 0.0 0.00 0.00 0.00 71 1010.5
20260505041326 52 314 0.0 1.0 0.00 0.00 0.00 65 1010.5
20260505040851 52 344 0.0 1.0 0.00 0.00 0.00 65 1010.4
20260505040328 52 342 0.0 1.0 0.00 0.00 0.00 66 1010.3
20260505035825 52 329 0.0 1.0 0.00 0.00 0.00 66 1010.4
20260505035343 52 350 0.0 0.0 0.00 0.00 0.00 66 1010.3
20260505034821 52 336 0.0 0.0 0.00 0.00 0.00 66 1010.3
20260505034320 52 336 0.0 0.0 0.00 0.00 0.00 66 1010.3
20260505033818 52 334 0.0 0.0 0.00 0.00 0.00 65 1010.3
20260505033316 52 337 0.0 1.0 0.00 0.00 0.00 65 1010.3
20260505032828 52 314 0.0 1.0 0.00 0.00 0.00 64 1010.3
20260505032346 52 336 0.0 0.0 0.00 0.00 0.00 64 1010.2
20260505031824 52 336 0.0 0.0 0.00 0.00 0.00 64 1010.1
20260505031351 52 350 0.0 0.0 0.00 0.00 0.00 65 1010.1
20260505030829 52 350 0.0 0.0 0.00 0.00 0.00 64 1010.1
20260505030354 52 323 0.0 0.0 0.00 0.00 0.00 64 1010.1
20260505025834 53 323 0.0 0.0 0.00 0.00 0.00 63 1010.1
20260505025332 53 323 0.0 0.0 0.00 0.00 0.00 63 1010.1
20260505024829 53 323 0.0 0.0 0.00 0.00 0.00 63 1010.1
20260505024330 54 323 0.0 0.0 0.00 0.00 0.00 62 1010.1
20260505023831 54 323 0.0 0.0 0.00 0.00 0.00 61 1010.1
20260505023329 54 323 0.0 0.0 0.00 0.00 0.00 61 1010.0
20260505022829 55 323 0.0 0.0 0.00 0.00 0.00 60 1010.1
20260505022327 55 323 0.0 0.0 0.00 0.00 0.00 60 1010.1
20260505021826 55 323 0.0 3.0 0.00 0.00 0.00 60 1010.0
20260505021331 55 141 1.0 3.0 0.00 0.00 0.00 60 1010.0
20260505020826 56 317 0.0 2.0 0.00 0.00 0.00 59 1010.0
20260505020324 56 340 0.0 3.0 0.00 0.00 0.00 58 1009.9
20260505015824 56 331 0.0 3.0 0.00 0.00 0.00 57 1010.0
20260505015325 57 331 0.0 1.0 0.00 0.00 0.00 56 1010.0
20260505014824 57 298 0.0 1.0 0.00 0.00 0.00 55 1009.9
20260505014325 57 305 0.0 3.0 0.00 0.00 0.00 55 1010.0
20260505013825 57 344 0.0 5.0 0.00 0.00 0.00 54 1010.1
20260505013342 57 192 1.0 5.0 0.00 0.00 0.00 54 1010.0
20260505012820 57 205 1.0 3.0 0.00 0.00 0.00 54 1010.1
20260505012339 57 318 0.0 1.0 0.00 0.00 0.00 53 1010.1
20260505011819 57 339 0.0 1.0 0.00 0.00 0.00 53 1010.0
20260505011341 57 305 0.0 1.0 0.00 0.00 0.00 52 1010.2
20260505010838 58 279 0.0 3.0 0.00 0.00 0.00 50 1010.1
20260505010334 58 279 0.0 4.0 0.00 0.00 0.00 50 1010.1
20260505005833 58 279 1.0 4.0 0.00 0.00 0.00 49 1010.2
20260505005331 58 226 0.0 3.0 0.00 0.00 0.00 48 1010.1
20260505004822 58 244 0.0 3.0 0.00 0.00 0.00 47 1010.2
20260505004322 58 15 1.0 9.0 0.00 0.00 0.00 46 1010.2
20260505003821 57 232 2.0 9.0 0.00 0.00 0.00 47 1010.2
20260505003320 57 316 0.0 2.0 0.00 0.00 0.00 46 1010.2
20260505002821 57 342 0.0 7.0 0.00 0.00 0.00 48 1010.3
20260505002320 57 350 2.0 7.0 0.00 0.00 0.00 49 1010.3
20260505001821 57 331 0.0 1.0 0.00 0.00 0.00 48 1010.2
20260505001321 57 355 0.0 1.0 0.00 0.00 0.00 48 1010.2
20260505000821 58 311 0.0 3.0 0.00 0.00 0.00 49 1010.2
20260505000320 57 245 1.0 3.0 0.00 0.00 0.00 51 1010.3
20260504235839 56 316 0.0 2.0 0.00 0.00 0.00 50 1010.3
20260504235316 57 11 0.0 1.0 0.00 0.00 0.00 50 1010.2
20260504234834 57 324 0.0 1.0 0.00 0.00 0.00 50 1010.3
20260504234332 57 350 0.0 1.0 0.00 0.00 0.00 49 1010.3
20260504233845 57 339 0.0 18.0 0.00 0.00 0.00 50 1010.2
20260504233323 57 319 12.0 18.0 0.00 0.00 0.00 50 1010.3
20260504232823 57 344 6.0 18.0 0.00 0.00 0.00 52 1010.3
20260504232341 57 6 11.0 18.0 0.00 0.00 0.00 53 1010.3
20260504231820 57 337 1.0 6.0 0.00 0.00 0.00 53 1010.4
20260504231317 57 8 0.0 1.0 0.00 0.00 0.00 50 1010.4
20260504230837 57 331 0.0 1.0 0.00 0.00 0.00 52 1010.4
20260504230315 57 322 0.0 2.0 0.00 0.00 0.00 51 1010.4
20260504225834 57 360 0.0 15.0 0.00 0.00 0.00 49 1010.3
20260504225330 57 360 10.0 15.0 0.00 0.00 0.00 50 1010.5
20260504224830 57 360 6.0 11.0 0.00 0.00 0.00 50 1010.5
20260504224331 57 338 0.0 3.0 0.00 0.00 0.00 51 1010.5
20260504223833 57 345 0.0 2.0 0.00 0.00 0.00 50 1010.4
20260504223331 57 323 0.0 2.0 0.00 0.00 0.00 51 1010.5
20260504222830 57 12 0.0 1.0 0.00 0.00 0.00 55 1010.4
20260504222329 57 6 0.0 2.0 0.00 0.00 0.00 58 1010.5
20260504221829 57 335 0.0 2.0 0.00 0.00 0.00 57 1010.6
20260504221326 59 345 0.0 1.0 0.00 0.00 0.00 54 1010.6
20260504220828 59 320 0.0 7.0 0.00 0.00 0.00 52 1010.7
20260504220326 58 312 3.0 7.0 0.00 0.00 0.00 53 1010.7
20260504215826 59 15 0.0 2.0 0.00 0.00 0.00 52 1010.8
20260504215325 60 350 0.0 4.0 0.00 0.00 0.00 54 1010.9
20260504214829 58 261 1.0 4.0 0.00 0.00 0.00 58 1010.9
20260504214331 58 339 0.0 8.0 0.00 0.00 0.00 59 1011.0
20260504213829 57 355 0.0 13.0 0.00 0.00 0.00 62 1011.0
20260504213328 57 350 2.0 12.0 0.00 0.00 0.00 59 1011.1
20260504212828 59 344 0.0 2.0 0.00 0.00 0.00 54 1011.1
20260504212326 59 314 0.0 2.0 0.00 0.00 0.00 57 1011.1
20260504211824 57 318 0.0 2.0 0.00 0.00 0.00 59 1011.1
20260504211324 57 329 0.0 1.0 0.00 0.00 0.00 61 1011.2
20260504210821 57 8 0.0 1.0 0.00 0.00 0.00 60 1011.2
20260504210323 57 345 0.0 1.0 0.00 0.00 0.00 58 1011.2
20260504205824 57 350 0.0 1.0 0.00 0.00 0.00 58 1011.2
20260504205327 57 333 0.0 0.0 0.00 0.00 0.00 58 1011.3
20260504204828 58 288 0.0 8.0 0.00 0.00 0.00 55 1011.3
20260504204346 58 247 3.0 8.0 0.00 0.00 0.00 56 1011.3
20260504203826 58 350 0.0 1.0 0.00 0.00 0.00 54 1011.3
20260504203348 59 58 0.0 10.0 0.00 0.00 0.00 45 1011.4
20260504202826 59 308 5.0 10.0 0.00 0.00 0.00 48 1011.5
20260504202347 58 328 0.0 1.0 0.00 0.00 0.00 50 1011.3
20260504201825 59 341 0.0 4.0 0.00 0.00 0.00 46 1011.3
20260504201322 59 343 3.0 8.0 0.00 0.00 0.00 45 1011.4
20260504200823 59 306 3.0 6.0 0.00 0.00 0.00 44 1011.4
20260504200321 60 285 0.0 4.0 0.00 0.00 0.00 45 1011.3
20260504195822 60 335 0.0 4.0 0.00 0.00 0.00 49 1011.3
20260504195320 59 271 1.0 6.0 0.00 0.00 0.00 48 1011.3
20260504194817 59 337 3.0 6.0 0.00 0.00 0.00 45 1011.3
20260504194317 59 314 3.0 4.0 0.00 0.00 0.00 47 1011.3
20260504193819 59 342 0.0 1.0 0.00 0.00 0.00 47 1011.4
20260504193320 59 311 0.0 1.0 0.00 0.00 0.00 46 1011.4
20260504192820 59 6 0.0 5.0 0.00 0.00 0.00 47 1011.3
20260504192321 59 337 0.0 5.0 0.00 0.00 0.00 48 1011.4
20260504191840 59 212 1.0 4.0 0.00 0.00 0.00 50 1011.4
20260504191338 58 285 2.0 4.0 0.00 0.00 0.00 49 1011.5
20260504190834 58 322 1.0 4.0 0.00 0.00 0.00 50 1011.6
20260504190333 58 339 0.0 7.0 0.00 0.00 0.00 51 1011.5
20260504185833 58 304 1.0 7.0 0.00 0.00 0.00 50 1011.6
20260504185334 58 283 0.0 4.0 0.00 0.00 0.00 49 1011.5
20260504184831 57 281 0.0 3.0 0.00 0.00 0.00 50 1011.6
20260504184330 58 5 0.0 4.0 0.00 0.00 0.00 50 1011.6
20260504183849 58 249 1.0 4.0 0.00 0.00 0.00 52 1011.6
20260504183322 58 314 0.0 7.0 0.00 0.00 0.00 53 1011.6
20260504182822 57 290 0.0 7.0 0.00 0.00 0.00 53 1011.6
20260504182322 56 291 1.0 5.0 0.00 0.00 0.00 54 1011.5
20260504181821 56 321 0.0 0.0 0.00 0.00 0.00 54 1011.5
20260504181320 55 350 0.0 1.0 0.00 0.00 0.00 53 1011.4
20260504180818 57 350 0.0 1.0 0.00 0.00 0.00 52 1011.5
20260504180317 57 355 0.0 1.0 0.00 0.00 0.00 51 1011.5
20260504175838 57 338 0.0 1.0 0.00 0.00 0.00 51 1011.5
20260504175319 57 339 0.0 1.0 0.00 0.00 0.00 51 1011.4
20260504174820 57 350 0.0 1.0 0.00 0.00 0.00 52 1011.5
20260504174318 57 320 0.0 1.0 0.00 0.00 0.00 53 1011.6
20260504173836 57 339 0.0 1.0 0.00 0.00 0.00 55 1011.5
20260504173333 56 355 0.0 1.0 0.00 0.00 0.00 54 1011.5
20260504172831 57 345 0.0 1.0 0.00 0.00 0.00 53 1011.5
20260504172333 56 285 0.0 1.0 0.00 0.00 0.00 49 1011.5
20260504171831 56 331 0.0 1.0 0.00 0.00 0.00 49 1011.6
20260504171332 56 344 0.0 1.0 0.00 0.00 0.00 49 1011.5
20260504170831 56 355 0.0 0.0 0.00 0.00 0.00 47 1011.6
20260504170329 56 350 0.0 1.0 0.00 0.00 0.00 49 1011.7
20260504160325 56 350 0.0 0.0 0.00 0.00 0.00 45 1011.7
20260504150828 54 8 0.0 0.0 0.00 0.00 0.00 43 1011.8
20260504150326 54 350 0.0 1.0 0.00 0.00 0.00 44 1011.8
20260504141323 54 293 0.0 0.0 0.00 0.00 0.00 42 1011.7
20260504140825 54 293 0.0 0.0 0.00 0.00 0.00 43 1011.7
20260504140323 54 293 0.0 0.0 0.00 0.00 0.00 42 1011.7
20260504130334 50 293 0.0 0.0 0.00 0.00 0.00 46 1011.3